Location: Aufkirchen
(47.9603°N, 11.3653°E)
Time: 15:04:32
(UTC+01:00)

Transit 2A Rocket - Pass Details

Date: 07 December 2020
Orbit: 592 x 910 km, 66.7° (Epoch: 21 January)

Event Time Altitude Azimuth Distance (km) Brightness Sun altitude
Rises 23:46:52 0° 200° (SSW) 3,496 - -64.5°
Reaches altitude 10° 23:49:27 10° 197° (SSW) 2,535 - -64.5°
Maximum altitude 23:55:13 59° 119° (ESE) 970 - -64.7°
Drops below altitude 10° 00:00:37 10° 41° (NE) 2,374 - -64.7°
Sets 00:02:59 0° 38° (NE) 3,257 - -64.8°
